User: anonymous   Login
Location: Unspecified
(0.0000°N, 0.0000°E)
Time: 15:39:24
(UTC+00:00)
Language:

OPUSAT - Orbit

View from above orbital plane
View from above orbital plane
View from above satellite
View from above satellite

Ground track
Ground track

The orbit data is extracted from the following two-line orbital elements,

1 39575U 14009D   14205.03098383  .10394079  79053-5  15280-3 0  9990
2 39575 064.9843 263.3854 0017888 326.7083 036.3105 16.47207532 23119
Epoch (UTC): 24 July 2014 00:44:37
Eccentricity: 0.0017888
inclination: 64.9843°
perigee height: 135 km
apogee height: 158 km
right ascension of ascending node: 263.3854°
argument of perigee: 326.7083°
revolutions per day: 16.47207532
mean anomaly at epoch: 36.3105°
orbit number at epoch: 2311

The dashed part of the orbit path shows where the satellite is in the earth's shadow,  

DLR